Precipitable_Water
0.17 0.17 0.18 0.19 0.19 0.20 0.21 0.25 0.32 0.40 0.48 0.55 0.66 0.85 1.04 1.14 1.21 1.28 1.32 1.40 1.43 1.45
0.17 0.17 0.16 0.17 0.18 0.20 0.22 0.23 0.28 0.32 0.40 0.46 0.54 0.60 0.83 1.04 1.13 1.22 1.30 1.33 1.39 1.41
0.18 0.18 0.17 0.17 0.16 0.17 0.20 0.22 0.23 0.26 0.31 0.39 0.46 0.51 0.62 0.84 1.02 1.14 1.25 1.33 1.37 1.40
0.18 0.18 0.18 0.17 0.16 0.16 0.17 0.20 0.21 0.24 0.27 0.33 0.39 0.46 0.51 0.63 0.85 1.03 1.14 1.28 1.29 1.34
0.19 0.18 0.17 0.16 0.16 0.16 0.15 0.17 0.20 0.22 0.24 0.28 0.33 0.40 0.46 0.50 0.70 0.90 1.04 1.18 1.26 1.27
0.18 0.17 0.17 0.16 0.16 0.16 0.15 0.16 0.18 0.21 0.22 0.25 0.29 0.35 0.42 0.45 0.53 0.80 0.98 1.09 1.22 1.25
0.17 0.17 0.16 0.16 0.16 0.15 0.15 0.15 0.16 0.19 0.22 0.24 0.28 0.33 0.38 0.41 0.46 0.67 0.88 1.00 1.10 1.24
0.18 0.17 0.16 0.16 0.15 0.15 0.15 0.15 0.16 0.17 0.21 0.23 0.26 0.29 0.34 0.38 0.42 0.52 0.76 0.91 1.04 1.18
0.17 0.16 0.16 0.16 0.15 0.14 0.14 0.15 0.15 0.16 0.18 0.21 0.24 0.27 0.31 0.36 0.38 0.44 0.65 0.82 0.93 1.06
0.17 0.15 0.15 0.15 0.14 0.14 0.13 0.14 0.14 0.15 0.16 0.19 0.23 0.26 0.28 0.33 0.37 0.41 0.52 0.73 0.85 0.96
0.16 0.15 0.14 0.13 0.13 0.13 0.13 0.13 0.14 0.15 0.16 0.17 0.22 0.26 0.28 0.30 0.34 0.38 0.43 0.64 0.77 0.87
0.15 0.13 0.12 0.11 0.12 0.12 0.12 0.12 0.13 0.15 0.16 0.16 0.20 0.24 0.27 0.29 0.31 0.34 0.38 0.55 0.70 0.82
0.14 0.12 0.11 0.11 0.11 0.12 0.12 0.12 0.13 0.14 0.15 0.17 0.18 0.23 0.27 0.29 0.31 0.32 0.34 0.47 0.64 0.78
0.13 0.12 0.11 0.11 0.12 0.12 0.12 0.12 0.13 0.13 0.15 0.16 0.18 0.22 0.26 0.29 0.31 0.33 0.34 0.38 0.54 0.70
Wind_Speed
27 26 25 24 24 30 42 47 48 48 48 46 46 48 48 46 48 49 46 48 54 54
29 28 27 27 26 26 34 45 50 50 50 50 49 49 50 49 46 47 50 48 55 55
31 31 30 29 29 28 29 38 48 51 53 53 51 50 51 52 50 51 49 49 47 52
33 33 33 33 32 31 31 32 41 50 53 53 54 53 53 53 52 50 52 52 53 54
35 35 35 35 35 34 34 34 35 44 51 54 55 56 55 54 54 51 50 48 51 51
36 36 36 37 37 36 35 35 35 38 46 52 55 57 58 57 55 55 52 52 49 49
37 37 38 38 37 36 35 35 36 36 40 48 53 56 57 58 57 57 55 53 50 50
38 38 38 37 37 36 36 36 36 36 38 43 50 54 57 58 59 57 58 56 54 53
38 38 38 37 37 37 37 36 36 36 37 40 46 52 56 59 60 60 61 58 54 50
37 38 37 38 38 38 38 37 37 37 37 39 42 48 53 58 62 62 62 60 58 56
38 38 38 39 39 39 39 38 38 38 38 39 40 44 49 55 60 63 63 63 62 58
38 38 39 40 41 41 41 40 39 39 39 39 40 42 46 51 57 62 65 66 63 61
39 40 41 42 42 42 42 41 40 40 39 39 40 41 43 47 54 60 63 66 65 63
40 41 42 42 42 41 41 41 40 40 39 39 39 39 41 44 50 56 60 63 64 63
Wind_Direction
313 313 312 307 294 263 247 242 241 240 240 239 238 237 236 234 231 233 233 230 228 229
309 308 307 305 300 287 259 246 243 242 241 241 240 239 236 234 235 236 235 236 230 230
303 303 302 300 297 293 281 257 247 244 242 242 240 239 237 236 238 237 236 232 231 229
298 299 298 297 294 290 286 275 256 247 244 243 241 239 239 237 238 238 237 235 235 232
293 294 294 293 291 289 285 280 270 254 247 245 243 240 238 238 237 237 237 236 233 233
290 291 291 291 290 288 284 280 274 264 252 246 244 242 239 239 238 236 237 235 236 234
288 289 289 290 289 287 285 281 275 270 260 249 245 243 241 239 238 235 235 236 237 233
287 288 288 288 287 287 285 282 277 272 265 256 247 244 242 239 238 236 234 235 235 234
287 288 287 286 286 286 285 283 278 274 269 261 252 247 244 240 238 236 233 233 234 236
286 288 286 286 286 286 285 283 280 275 271 265 257 250 246 242 238 236 233 233 233 233
287 287 287 288 287 285 284 283 280 276 273 268 261 254 248 243 239 236 233 232 232 234
287 287 288 288 287 285 283 282 280 277 274 270 264 259 252 245 240 236 234 231 231 232
287 287 288 288 287 285 283 281 279 276 274 270 266 262 255 248 241 237 234 232 230 230
288 288 289 289 287 284 283 281 278 275 273 270 267 262 257 250 243 237 233 230 229 228